Regional Weather Roundup
Issued by NWS Newport/Morehead, NC

Current Version | Previous Version | Text Only | Print | Product List | Glossary Off
Versions: 1 2 3 4 5 6 7 8 9 10 11 12 13 14 15 16 17 18 19 20 21 22 23 24 25 26 27 28 29 30 31 32 33 34 35 36 37 38 39 40 41 42 43 44 45 46 47 48 49 50
000 ASUS42 KMHX 211910 RWRMHX WEATHER ROUNDUP FOR EASTERN NORTH CAROLINA NATIONAL WEATHER SERVICE NEWPORT/MOREHEAD CITY NC 200 PM EST FRI NOV 21 2014 NOTE: "FAIR" INDICATES FEW OR NO CLOUDS BELOW 12,000 FEET WITH NO SIGNIFICANT WEATHER AND/OR OBSTRUCTIONS TO VISIBILITY NCZ015>017-031-032-045>047-102-103-212000- NORTH COAST CITY SKY/WX TMP DP RH WIND PRES REMARKS EDENTON SUNNY 46 15 27 N13G18 30.42R ELIZABETH CITY SUNNY 48 12 23 NW13 30.42R KITTY HAWK CLEAR 44 17 34 NW12G18 30.39R MANTEO SUNNY 44 19 37 N10 30.41R $$ NCZ045>047-081-094-103-104-212000- CENTRAL COAST CITY SKY/WX TMP DP RH WIND PRES REMARKS FRISCO SUNNY 45 27 49 VRB7G18 30.39S SWANQUARTER N/A 48 N/A N/A NW9G17 30.36S $$ NCZ095-097-098-100-101-212000- SOUTHERN COAST CITY SKY/WX TMP DP RH WIND PRES REMARKS BEAUFORT SUNNY 51 20 29 N14 30.40R CEDAR ISLAND N/A 46 N/A N/A N14 30.44S JACKSONVILLE NOT AVBL PINEY ISLAND CLEAR 50 21 32 N15 30.40S WILMINGTON SUNNY 57 19 22 NW9 30.38F $$ NCZ011>013-027>030-043-044-078>080-089-090>093-098-212000- COASTAL PLAIN CITY SKY/WX TMP DP RH WIND PRES REMARKS AHOSKIE SUNNY 45 12 26 NW7 30.43R CLINTON SUNNY 53 16 23 N6 30.41S ELIZABETHTOWN SUNNY 54 18 24 NW7 30.39F GOLDSBORO SUNNY 51 14 22 NW14G21 30.40S GREENVILLE SUNNY 48 10 21 NW13 30.42S HAVELOCK SUNNY 51 16 24 N16G22 30.41S KENANSVILLE SUNNY 52 11 19 NW10 30.41S KINSTON SUNNY 50 12 22 N12G17 30.42R NEW BERN SUNNY 52 14 22 N10 30.41S RICHLANDS SUNNY 52 16 24 N10 30.40S ROCKY MOUNT SUNNY 48 9 20 N12 30.44R WASHINGTON SUNNY 47 14 25 N9 30.41S WHITEVILLE SUNNY 55 20 25 N6 30.38S $$ AMZ130-135-150-152-154-156-158-170-250-252-270-ANZ085-086-088-633-658-670-212000- MARINE OBSERVATIONS STATION/POSITION TIME TEMP WIND PRES WAVE SWELL AIR SEA DIR/SP/G HT/PER HT/PER (UTC) (F) (DEG/KT/KT) (MB) (FT/S) (FT/S) CHESAPEAKE LIGHT 1800 39 330/ 21/ 26 1029.9 64 E VA BEACH 1900 42 61 330/ 23/ 31 1028.4 8/ 8 2/13 DUCK 1900 41 55 360/ 15/ 23 1028.5 2 E DUCK 1800 56 N/A 5/ 6 10 NE DUCK 1800 58 N/A 6/ 6 OREGON INLET 1900 44 48 340/ 10/ 14 1029.3 13E OREGON INLT 1800 63 N/A 7/ 6 HATTERAS CG 1900 45 52 340/ 15/ 19 1029.4 DIAMOND BUOY 1900 47 330/ 14/ 19 1029.0 5/ 6 17 S OCRACOKE NOT AVBL CAPE LOOKOUT 1800 48 350/ 12/ 17 1029.0 BEAUFORT LAB 1900 49 53 360/ 11/ 15 1028.1 30 SE NEW RIVER 1900 51 69 10/ 14/ 19 1028.7 3/ 4 2/ 7 5 SE WRIGHTSVLE 1800 49 60 40/ 8/ 12 1028.9 225 S CAPE HAT 1835 67 73 350/ 16/ 23 1026.1 5/ 7 41 SE CHARLESTON 1900 61 72 30/ 16/ 19 1027.6 3/ 5 2/ 8 $$

USA.gov is the U.S. government's official web portal to all federal, state and local government web resources and services.